Location: Newark
(36.1222°N, 100.9183°E)
Time: 16:02:05
(UTC+00:00)

Hubble Space Telescope - Visible Passes

Search period start: 18 March 2019 00:00
Search period end: 28 March 2019 00:00
Orbit: 537 x 540 km, 28.5° (Epoch: 17 March)

Date Brightness Start Highest point End Pass type
(mag) Time Alt. Az. Time Alt. Az. Time Alt. Az.
24 Mar 3.0 12:17:38 10° S 12:18:59 11° SSE 12:20:21 10° SE visible
25 Mar 2.9 12:06:16 10° SSW 12:08:24 14° SSE 12:10:32 10° SE visible
25 Mar 3.3 13:45:34 10° SW 13:46:20 14° SW 13:46:20 14° SW visible
26 Mar 2.7 11:55:13 10° SSW 11:57:48 16° SSE 12:00:24 10° SE visible
26 Mar 2.8 13:34:57 10° SW 13:36:39 20° SW 13:36:39 20° SW visible
27 Mar 2.3 13:24:21 10° WSW 13:26:54 25° SSW 13:26:54 25° SSW visible
